Hourly Weather Roundup
Issued by NWS Central Illinois

Home | Current Version | Previous Version | Text Only | Print | Product List | Glossary On
Versions: 1 2 3 4 5 6 7 8 9 10 11 12 13 14 15 16 17 18 19 20 21 22 23 24 25 26 27 28 29 30 31 32 33 34 35 36 37 38 39 40 41 42 43 44 45 46 47 48 49 50
000
NZUS43 KILX 151910
HWRILX

Area Weather Roundup
National Weather Service Lincoln IL
100 PM CST FRI DEC 15 2017

NOTE:  "FAIR" indicates few or no clouds below 12,000 feet, with
       no sigificant weather and/or obstructions to visibility.


CITY           SKY/WX    TMP DP  RH WIND       PRES   REMARKS
Bloomington    MOSUNNY   35  17  47 W15       29.98F WCI  25
Champaign      MOSUNNY   34  18  52 W15       30.01F WCI  24
Danville       PTSUNNY   31  16  53 W15G22    29.97F WCI  20
Decatur        PTSUNNY   36  19  50 W10       30.02F WCI  28
Effingham      CLOUDY    36  27  70 W12       30.07F WCI  27
Flora          CLOUDY    40  27  59 W16       30.06F WCI  32
Galesburg      CLOUDY    35  23  60 SW14      29.97F WCI  26
Jacksonville   CLOUDY    38  18  44 W8G18     30.03F WCI  32
Lacon          CLOUDY    34  18  52 W15       29.97F WCI  24
Lawrenceville  CLOUDY    38  25  59 W14       30.06F WCI  30
Litchfield     MOSUNNY   39  23  53 W7G16     30.04F WCI  34
$$


CITY           SKY/WX    TMP DP  RH WIND       PRES   REMARKS
Lincoln        MOSUNNY   38  21  51 W8        30.01F WCI  32
Macomb         CLOUDY    37  21  52 W15G22    30.02F WCI  28
Mattoon        CLOUDY    34  21  59 W14       30.03F WCI  25
Mt Carmel AP   CLOUDY    38  23  54 SW13G18   30.06F WCI  31
Olney-Noble AP CLOUDY    37  24  57 W12       30.06F WCI  30
Paris AP       CLOUDY    32  20  61 NW17G25   30.04S WCI  21
Peoria         CLOUDY    36  20  52 W13       29.99F WCI  27
Pontiac        PTSUNNY   36  19  49 W21G28    29.96F WCI  25
Rantoul        MOSUNNY   35  19  51 W14       29.99F WCI  26
Robinson       CLOUDY    34  25  68 W14       30.07R WCI  25
Springfield    SUNNY     40  20  44 W12       30.03F WCI  33
Taylorville    MOSUNNY   37  19  48 NW7G18    30.04F WCI  31
$$

...REGIONAL REPORTS...


CITY           SKY/WX    TMP DP  RH WIND       PRES   REMARKS
Chicago O`Hare CLOUDY    31  17  56 W14       29.89F WCI  21
Kankakee       CLOUDY    34  17  49 NW18G26   29.96S WCI  23
Moline         CLOUDY    36  22  56 SW12      29.94F WCI  28
Mount Sterling CLOUDY    37  20  50 W12       30.02F WCI  29
Mount Vernon   CLOUDY    40  25  55 W10G17    30.08F WCI  33
Pittsfield     CLOUDY    39  22  50 W10       30.05F WCI  33
Quincy         CLOUDY    39  20  46 SW12      30.02F WCI  32
Rockford       FLURRIES  30  22  72 W14       29.92F WCI  19
$$


CITY           SKY/WX    TMP DP  RH WIND       PRES   REMARKS
Burlington     CLOUDY    38  22  52 SW15      29.97F WCI  29
Cedar Rapids   CLOUDY    37  26  64 W17       29.90F WCI  27
Des Moines     CLOUDY    43  21  41 W23G32    29.92F WCI  34
Kirksville     MOSUNNY   42  23  46 W12G24    30.01F
Ottumwa        CLOUDY    41  21  44 W15G25    29.94F WCI  33
St Louis       MOSUNNY   44  22  41 W14       30.07F
$$


CITY           SKY/WX    TMP DP  RH WIND       PRES   REMARKS
Terre Haute    CLOUDY    33  21  61 W12       30.04S WCI  24
Evansville     CLOUDY    39  24  55 SW6G20    30.09F WCI  35
Indianapolis   CLOUDY    31  20  63 W18       29.99F WCI  19
Lafayette      CLOUDY    31  16  54 W17G23    29.97F WCI  19
Madison        PTSUNNY   30  18  60 W10G17    29.85F WCI  21
Milwaukee      PTSUNNY   29  15  56 W9        29.85F WCI  20
$$





USA.gov is the U.S. government's official web portal to all federal, state and local government web resources and services.